Location: Chacón
(10.5789°N, 66.9317°W)
Time: 20:21:12
(UTC+00:00)

Sakura Rocket - Pass Details

Date: 15 August 2024
Orbit: 475 x 1710 km, 28.7° (Epoch: 09 September)

Event Time Altitude Azimuth Distance (km) Brightness Sun altitude
Exits shadow 07:46:49 43° 17° (NNE) 1,385 4.9 -35.9°
Maximum altitude 07:47:17 44° 28° (NNE) 1,396 5.0 -35.8°
Drops below altitude 10° 07:54:59 10° 98° (E) 3,321 7.4 -34.1°
Sets 07:58:34 0° 103° (ESE) 4,490 8.1 -33.3°
